Skip Page Navigation
NASA JPL Caltech
NASA Logo - Jet Propulsion Laboratory + View the NASA Portal
+ Near-Earth Object (NEO) Program
Search JPL
JPL Home Earth Solar System Stars & Galaxies Technology
JPL Solar System Dynamics
BODIES ORBITS EPHEMERIDES TOOLS PHYSICAL DATA DISCOVERY FAQ SITE MAP
JPL Small-Body Database Browser
Search: [ help ]  
14993 (1997 UC15)
Classification: Main-belt Asteroid          SPK-ID: 2014993
Ephemeris | Orbit Diagram | Orbital Elements | Physical Parameters | Discovery Circumstances | Close-Approach Data ]

[ show orbit diagram ]
Orbital Elements at Epoch 2457600.5 (2016-Jul-31.0) TDB
Reference: JPL 17 (heliocentric ecliptic J2000)
 Element Value Uncertainty (1-sigma)   Units 
e .1997212944024083 6.6134e-08  
a 3.123302529698238 2.8558e-08 au
q 2.499512505656589 2.1142e-07 au
i 1.087556195414182 6.4452e-06 deg
node 124.3873506822516 0.00035652 deg
peri 253.410665207068 0.0003569 deg
M 162.417808422547 1.5237e-05 deg
tp 2456690.899581302247
(2014-Feb-02.39958130)
8.37e-05 JED
period 2016.134523126179
5.52
2.7652e-05
7.571e-08
d
yr
n .1785595136984168 2.449e-09 deg/d
Q 3.747092553739886 3.4262e-08 au
  Orbit Determination Parameters
   # obs. used (total)      941  
   data-arc span      14755 days (40.40 yr)  
   first obs. used      1975-11-09  
   last obs. used      2016-04-02  
   planetary ephem.      DE431  
   SB-pert. ephem.      SB431-BIG16  
   condition code      0  
   fit RMS      .53679  
   data source      ORB  
   producer      Otto Matic  
   solution date      2016-Apr-25 13:20:50  

Additional Information
 Earth MOID = 1.50039 au 
 Jupiter MOID = 1.70909 au 
 T_jup = 3.184 
[ show covariance matrix ]

Ephemeris | Orbit Diagram | Orbital Elements | Physical Parameters | Discovery Circumstances | Close-Approach Data ]

Physical Parameter Table
Parameter Symbol Value Units Sigma Reference Notes
absolute magnitude H 13.6 mag n/a MPO272711  

14993 (1997 UC15)          Discovered 1997-Oct-26 by Shimizu, Y., Urata, T. at Nachi-Katsuura
Reference: 20000523/Numbers.arcLast Updated: 2004-04-19

[ show close-approach data ]
Alternate Designations
 1997 UC15 = 1975 VS9 = 1986 VP6 
Ephemeris | Orbit Diagram | Orbital Elements | Physical Parameters | Discovery Circumstances | Close-Approach Data ]
ABOUT SSD CREDITS/AWARDS PRIVACY/COPYRIGHT GLOSSARY LINKS
FirstGov 2016-Apr-30 16:54 UT
(server date/time)  
NASA Home Page
Site Manager:   Ryan S. Park
Webmaster  Alan B. Chamberlin